Location: Austin
(30.3000°N, 97.7500°W)
Time: 12:30:46
(UTC-05:00)

Okean O Rocket - Pass Details

Date: 08 April 2026
Orbit: 613 x 635 km, 98.0° (Epoch: 11 April)

Event Time Altitude Azimuth Distance (km) Brightness Sun altitude
Exits shadow 22:54:36 15° 336° (NNW) 1,689 4.3 -36.4°
Drops below altitude 10° 22:55:24 10° 338° (NNW) 2,004 4.8 -36.6°
Sets 22:57:37 0° 343° (NNW) 2,911 5.7 -36.9°
